Location: *
(50.8160°S, 176.0219°W)
Time: 23:39:03
(UTC+00:00)

Resurs 01 Rocket - Pass Details

Date: 19 May 2026
Orbit: 627 x 634 km, 97.7° (Epoch: 11 June)

Event Time Altitude Azimuth Distance (km) Brightness Sun altitude
Rises 16:52:40 0° 63° (ENE) 2,946 6.2 -22.8°
Reaches altitude 10° 16:55:33 10° 84° (E) 2,045 5.4 -22.3°
Maximum altitude 16:58:19 17° 122° (ESE) 1,659 4.4 -21.9°
Drops below altitude 10° 17:01:07 10° 161° (SSE) 2,057 4.4 -21.4°
Sets 17:04:01 0° 181° (S) 2,973 5.0 -21.0°
